Regional Weather Roundup
Issued by NWS

Home | Current Version | Previous Version | Graphics & Text | Print | Product List | Glossary On
Versions: 1 2 3 4 5 6 7 8 9 10 11 12 13 14 15 16 17 18 19 20 21 22 23 24 25 26 27 28 29 30 31 32 33 34 35 36 37 38 39 40 41 42 43 44 45 46 47 48 49 50
278
ASUS43 KOAX 030702
RWRNE

WEATHER ROUNDUP FOR NEBRASKA
NATIONAL WEATHER SERVICE OMAHA NE
200 AM CDT TUE MAY 03 2016

NOTES: SATELLITE DATA IS BEING USED TO AUGMENT CLOUD COVER ABOVE
       12000 FEET.
       "FAIR" INDICATES FEW OR NO CLOUDS BELOW 12,000 FEET WITH NO
       SIGNIFICANT WEATHER AND/OR OBSTRUCTIONS TO VISIBILITY.

  * THESE STATIONS DO NOT REPORT WEATHER SUCH AS RAIN...SNOW OR FOG.

NEZ001>004-019>022-054>056-030800-
NEBRASKA PANHANDLE

CITY           SKY/WX    TMP DP  RH WIND       PRES   REMARKS
SCOTTSBLUFF    CLOUDY    43  38  82 W6        30.08F
ALLIANCE       CLEAR     40  37  89 NW8       30.03F WCI  34
CHADRON        CLEAR     43  39  86 CALM      30.07R
KIMBALL        MOCLDY    42  35  78 N5        30.13S
SIDNEY         CLOUDY    42  36  79 W14       30.07F
$$

NEZ057>060-069>072-079>082-030800-
SOUTHWEST NEBRASKA

CITY           SKY/WX    TMP DP  RH WIND       PRES   REMARKS
NORTH PLATTE   CLOUDY    45  44  97 E7        30.05F
IMPERIAL       CLOUDY    45  41  86 SE5       30.04F
LEXINGTON      CLOUDY    47  41  81 NW8       30.05R
MCCOOK         LGT RAIN  48  43  82 N16       30.06R
$$

NEZ005>010-023>029-035>040-094-030800-
NORTH CENTRAL NEBRASKA

CITY           SKY/WX    TMP DP  RH WIND       PRES   REMARKS
VALENTINE      CLEAR     41  39  93 NW6       30.05F
AINSWORTH        N/A     43  42  98 CALM      30.05F FOG
BROKEN BOW     CLOUDY    47  41  80 W3        30.04R
ORD            CLEAR     39  37  92 CALM      30.03S
$$

NEZ041-046>049-061>064-073>077-083>087-030800-
SOUTH CENTRAL NEBRASKA

CITY           SKY/WX    TMP DP  RH WIND       PRES   REMARKS
GRAND ISLAND   CLEAR     45  38  76 S6        30.05S
AURORA         CLEAR     48  38  68 S3        30.05S
HASTINGS       CLEAR     43  36  76 CALM      30.04F
KEARNEY *      CLEAR     45  37  76 S7        30.04S
YORK           CLEAR     41  39  93 SW5       30.06S
$$

NEZ011>018-030>034-042>045-030800-
NORTHEAST NEBRASKA

CITY           SKY/WX    TMP DP  RH WIND       PRES   REMARKS
NORFOLK        PTCLDY    43  39  86 CALM      30.04S
ALBION         CLOUDY    45  40  85 CALM      30.05S
BLAIR          PTCLDY    51  39  63 CALM      30.05S
COLUMBUS *     CLEAR     43  34  70 CALM      30.06S
FREMONT        MOCLDY    46  43  88 CALM      30.05F
TEKAMAH        MOCLDY    47  45  93 S3        30.05S
$$

NEZ050>053-065>068-078-088>093-030800-
SOUTHEAST NEBRASKA

CITY           SKY/WX    TMP DP  RH WIND       PRES   REMARKS
LINCOLN        CLEAR     48  43  82 CALM      30.07S
OMAHA EPPLEY   PTCLDY    47  43  86 CALM      30.05S
BEATRICE       PTCLDY    45  42  90 E3        30.06S
FALLS CITY     PTCLDY    46  42  86 CALM      30.06S
$$

NEZ044-045-051>053-067-030800-
OMAHA AREA

CITY           SKY/WX    TMP DP  RH WIND       PRES   REMARKS
OMAHA EPPLEY   PTCLDY    47  43  86 CALM      30.05S
BLAIR          PTCLDY    51  39  63 CALM      30.05S
FREMONT        MOCLDY    46  43  88 CALM      30.05F
$$




USA.gov is the U.S. government's official web portal to all federal, state and local government web resources and services.